Location: Casco Volunteer Fire Department
(44.5576°N, 87.6146°W)
Time: 04:59:20
(UTC+00:00)

COSMOS 2406 - Pass Details

Date: 22 January 2026
Orbit: 843 x 861 km, 71.0° (Epoch: 10 February)

Event Time Altitude Azimuth Distance (km) Brightness Sun altitude
Exits shadow 12:00:58 13° 318° (NW) 2,262 4.9 -13.8°
Maximum altitude 12:05:36 40° 254° (WSW) 1,238 3.7 -13.0°
Drops below altitude 10° 12:10:55 10° 186° (S) 2,489 5.8 -12.1°
Sets 12:13:29 0° 179° (S) 3,422 6.6 -11.7°
